Vorticity
3 5 8 9 9 9 8 9 9 8 5 4 2 0 1 2 3 4 3 3 3 3 1 3 2 2 4 2 2 4 4 4 3 2 -0 0 2 2 2 3 4 4 4 3 3 3 3 3 3 3 3 3 3 4 4 4 3 4 4 5 5 5 4 4 4 4 3 3 3 3 3 3 3 3 3 2 3 3 3 3 3 3 3 2 3 4 3 3 4 3 3 3 3 3 2 3 2
4 4 6 9 9 9 9 8 8 8 7 6 2 1 2 2 3 4 3 3 3 3 1 3 1 1 4 3 4 4 4 4 3 2 2 1 0 2 2 1 2 3 3 3 2 2 1 2 2 2 2 1 1 1 2 2 3 2 2 3 3 4 4 5 5 4 4 4 4 4 4 3 3 3 3 3 3 3 3 3 3 3 4 3 3 4 4 4 5 4 4 4 3 4 3 3 3
3 4 4 6 9 10 10 10 7 7 8 6 3 2 3 2 4 5 2 2 3 3 1 3 2 2 5 4 5 5 4 3 2 3 3 2 0 2 2 1 1 1 3 3 2 2 2 2 2 2 1 1 1 1 1 1 2 2 2 2 2 2 3 3 4 4 4 4 4 4 4 4 4 4 4 4 4 4 4 4 3 4 4 4 3 5 5 4 5 4 5 5 4 5 5 4 4
-1 2 4 3 7 11 11 10 7 7 7 6 4 3 3 2 4 5 2 1 3 4 3 3 3 3 5 6 5 4 3 2 2 2 3 3 1 1 2 1 2 2 2 3 3 2 2 2 2 2 2 3 3 3 3 2 3 2 3 2 2 2 2 2 2 3 3 3 4 4 4 4 4 4 4 4 4 4 4 4 4 4 4 4 4 4 4 4 4 5 5 5 5 5 5 5 4
-2 -1 3 3 4 7 10 10 10 8 6 7 6 4 3 2 4 5 3 2 2 3 4 3 4 5 5 7 5 3 3 3 2 2 3 3 2 2 2 2 2 2 2 3 3 3 3 3 2 3 3 4 3 3 3 3 3 3 4 4 4 3 3 2 2 2 2 2 2 2 3 3 4 3 4 4 4 4 4 4 3 4 4 4 3 3 4 3 4 4 4 4 4 5 5 5 5
-6 -1 -2 2 4 4 7 9 10 8 9 10 6 4 3 2 4 5 2 3 2 2 4 3 4 6 6 6 3 2 4 4 4 2 2 2 3 3 2 3 3 2 2 3 3 4 3 3 3 3 4 4 4 4 4 4 4 4 4 4 4 4 4 3 3 2 2 2 2 2 2 2 2 3 3 3 4 4 3 3 3 4 4 4 4 3 5 5 4 5 5 5 5 5 5 5 5
-12 -4 -3 -1 3 3 5 6 7 8 12 12 5 4 4 2 3 4 2 3 3 2 4 5 5 6 6 5 0 1 4 5 5 3 2 2 3 3 3 3 3 3 3 4 4 4 3 3 4 4 4 3 3 3 4 4 5 5 5 5 4 4 5 5 4 4 4 3 3 3 4 4 4 4 4 4 4 4 4 4 5 5 5 7 7 7 7 8 7 6 7 6 6 6 5 6 5
-7 -8 -6 -3 0 2 3 3 4 8 12 12 7 6 5 3 3 4 3 3 4 3 4 5 5 6 5 3 0 -1 1 4 4 3 2 2 3 3 4 4 3 4 4 4 4 4 3 4 4 4 3 3 3 3 3 3 4 6 6 7 6 5 5 5 5 5 5 5 5 5 5 6 6 6 6 6 6 6 7 7 8 8 8 8 8 8 7 8 7 6 7 6 6 7 7 7 7
4 -2 -7 -6 -3 0 2 2 2 5 10 12 10 7 5 5 4 4 4 3 4 4 5 5 6 6 4 3 2 0 0 3 3 3 4 3 3 3 3 4 4 4 5 4 4 4 4 4 4 3 3 3 3 3 3 3 3 4 5 7 7 8 7 6 6 6 6 6 6 6 6 7 7 8 8 8 9 9 9 9 9 8 8 7 6 6 5 6 6 6 6 6 6 7 7 8 8
3 3 1 -4 -5 -3 -1 0 3 5 7 10 10 9 7 6 5 5 4 3 4 4 5 6 8 7 5 4 2 2 1 2 3 3 4 4 4 3 3 4 4 5 5 5 4 4 4 3 3 3 3 3 3 3 4 4 4 4 5 5 6 7 8 9 8 7 7 7 7 7 7 8 8 8 9 9 9 9 8 6 5 5 4 4 3 4 4 4 5 6 6 6 6 7 7 8 8
4 1 3 2 -2 -3 -5 -4 1 6 6 6 8 8 7 8 6 6 5 4 4 5 5 6 9 8 5 4 2 2 2 2 3 2 2 3 4 4 4 4 4 5 4 5 5 5 4 3 3 3 3 3 3 3 4 5 6 6 6 5 5 5 6 7 8 8 9 9 9 8 8 8 8 8 8 8 6 5 4 3 2 3 3 3 4 4 5 5 6 6 6 6 6 7 8 8 8
13 5 4 4 1 -2 -4 -7 -4 3 4 2 6 8 6 7 7 7 7 6 5 5 5 6 9 7 3 3 2 2 3 3 2 2 2 2 3 4 3 4 4 4 5 5 5 5 4 4 4 3 3 3 2 3 3 5 7 9 11 9 6 4 4 4 5 7 8 9 9 8 8 7 7 6 5 4 3 3 2 2 2 3 4 5 5 6 6 6 7 8 7 7 7 8 8 9 9
18 11 7 7 3 -1 -2 -5 -7 -1 3 2 5 7 6 6 7 7 7 5 6 6 7 6 6 6 3 2 2 2 2 3 3 2 2 3 3 4 4 3 2 3 4 4 4 4 4 4 4 3 3 3 2 2 2 3 6 9 12 13 10 6 4 4 4 5 6 7 7 7 6 6 5 4 3 3 2 3 3 3 4 5 6 7 7 7 7 7 8 9 9 8 9 9 9 9 9
19 18 13 12 10 3 -0 -3 -6 -4 3 5 5 5 5 5 6 6 6 6 6 7 8 7 4 3 3 2 3 3 2 2 2 2 2 3 3 4 4 4 2 3 3 3 3 3 3 4 4 3 3 3 3 3 2 2 4 7 10 12 13 10 7 6 5 5 5 6 7 6 5 4 3 2 2 3 3 3 4 4 5 6 7 7 7 7 7 8 8 8 8 8 8 7 7 7 7
10 19 18 16 18 13 5 -1 -5 -4 -1 2 3 5 5 4 6 6 6 6 7 7 7 7 5 3 3 3 3 3 2 2 2 2 2 3 3 3 3 3 4 3 3 4 3 3 3 4 4 4 3 3 3 3 2 2 4 7 10 11 12 11 9 8 7 5 5 6 6 5 4 3 2 2 2 3 3 4 5 6 6 7 7 7 7 7 7 7 7 7 7 6 6 5 5 5 5
1 10 16 13 16 20 15 4 -3 -3 -5 -2 2 5 4 3 5 7 7 7 6 6 6 7 6 5 4 3 3 2 2 3 2 2 2 3 2 2 1 2 3 3 3 3 3 3 3 4 5 5 4 4 3 3 3 2 3 7 10 11 11 10 9 8 7 6 5 5 5 4 3 3 2 2 2 3 4 5 6 6 7 7 7 7 7 7 7 6 6 6 5 5 5 4 4 4 3
1 5 9 5 8 16 20 13 3 -1 -6 -6 1 4 3 2 4 6 7 7 5 5 5 5 5 4 4 2 2 2 2 3 2 2 2 2 2 3 1 1 2 3 2 2 2 3 3 3 4 5 4 3 2 3 3 2 2 5 10 12 10 9 7 7 6 6 5 4 4 4 3 3 3 2 2 3 5 6 6 6 6 6 6 6 6 6 5 5 4 4 4 4 3 3 3 2 2
3 4 3 2 3 7 15 16 8 3 -4 -9 -3 3 3 0 2 4 5 6 5 5 4 4 4 3 3 3 2 1 1 2 2 2 2 2 3 3 2 1 1 1 2 2 2 2 3 3 3 4 4 4 4 3 3 2 2 4 9 11 10 9 6 5 6 5 5 4 4 4 3 3 2 2 3 4 5 6 6 6 6 5 5 5 5 5 4 4 3 3 3 3 3 3 2 2 2
7 4 4 3 1 1 9 17 13 7 1 -4 -6 -1 3 -1 1 4 3 4 5 4 4 4 4 4 2 2 3 2 2 1 2 1 1 2 2 1 1 1 1 1 2 2 2 2 3 3 3 4 4 5 4 4 3 3 2 3 8 11 9 8 6 4 5 4 4 4 4 4 4 3 3 3 4 5 6 6 6 6 5 5 4 4 4 4 4 3 3 2 2 3 3 3 2 2 2
9 10 9 2 -1 -1 3 14 19 11 4 2 -4 -3 2 -2 -1 4 1 2 5 4 4 4 3 3 3 2 2 2 2 2 1 1 1 1 0 -1 -1 1 1 1 1 1 2 3 3 3 4 3 4 5 5 5 4 3 3 3 6 10 10 8 5 4 4 4 4 3 4 4 4 3 3 3 5 6 6 6 7 5 4 5 4 4 4 3 3 3 2 2 2 2 3 3 3 2 2
7 14 7 -2 0 -0 -2 5 15 17 13 8 0 -2 1 -2 -0 1 1 3 4 3 4 4 3 2 2 3 2 2 2 2 1 1 2 1 0 0 0 1 1 0 1 2 2 2 2 2 3 4 3 4 4 5 4 4 4 2 3 8 12 10 6 4 3 4 3 3 4 4 4 4 3 4 5 6 6 6 7 6 4 4 4 4 4 3 3 2 2 2 1 1 3 3 3 3 2
7 8 -0 1 6 3 2 0 4 13 18 16 11 7 -4 -4 3 -1 -1 4 -0 0 6 5 3 3 2 3 3 2 1 1 1 1 2 1 1 1 1 2 1 1 2 2 2 1 1 2 3 4 4 4 4 4 5 4 4 3 2 5 11 12 8 4 3 3 2 3 3 4 4 3 3 4 5 6 5 6 6 5 4 3 3 3 3 3 2 2 1 1 1 2 4 4 4 4 3
10 4 -0 4 5 4 5 3 2 4 10 13 18 23 6 -7 1 1 0 2 -4 -3 5 6 4 2 2 2 2 2 2 1 1 2 1 1 2 2 1 1 1 1 2 2 2 1 1 2 3 3 3 4 3 3 4 5 4 4 3 2 6 12 12 5 3 4 2 2 3 3 4 4 4 4 6 6 5 6 5 4 4 4 3 3 3 3 2 2 1 1 3 4 5 6 7 6 5
10 3 4 6 2 3 2 2 5 4 5 3 4 23 25 5 -4 -1 3 -1 -4 -2 1 5 5 3 1 2 3 2 3 3 2 2 2 1 2 3 1 1 2 1 2 3 2 2 2 2 2 2 3 3 3 3 3 5 4 4 4 3 3 9 13 10 5 3 2 2 3 3 4 4 4 5 5 6 5 5 5 4 5 4 4 3 3 3 3 2 2 4 5 6 7 7 8 8 8
11 3 3 7 4 3 2 2 4 4 7 5 -0 9 22 23 8 -4 -1 -1 -4 -2 -1 2 3 4 3 1 2 3 3 3 3 3 2 3 2 1 2 2 1 2 2 2 1 3 2 2 3 2 2 2 3 3 2 4 4 3 4 3 2 4 11 15 8 2 2 2 3 3 3 4 4 4 5 5 6 5 4 4 5 4 4 4 4 4 4 5 6 6 7 7 8 9 9 9 9
11 6 3 6 6 4 4 3 3 4 6 6 7 4 4 25 31 9 -4 -4 -2 -2 -2 1 0 2 3 1 2 2 3 2 3 3 3 4 2 1 3 2 1 3 2 0 1 2 0 1 2 2 2 1 3 4 3 3 3 4 3 3 4 2 7 16 13 4 3 2 2 3 2 4 4 4 5 6 6 5 4 4 4 4 4 5 5 5 6 7 7 6 6 6 7 8 9 9 9
9 9 5 5 7 6 6 3 1 5 6 4 9 7 -4 11 35 30 10 -5 -5 0 -2 -1 -0 -0 0 1 2 2 2 2 1 3 3 3 2 3 3 2 3 3 2 1 3 2 -0 2 3 3 3 1 2 3 4 4 3 3 3 4 4 3 4 13 16 7 3 3 2 2 2 4 5 4 5 5 6 4 4 4 4 4 4 4 5 6 7 7 6 5 5 5 6 7 7 8 8
8 10 8 4 6 7 6 6 2 3 7 6 8 9 -0 6 21 23 23 7 -8 -2 -1 -0 0 -3 -2 -1 0 2 1 1 2 2 2 4 4 4 3 2 4 3 2 3 3 1 1 2 2 2 3 3 1 2 4 4 4 3 3 4 3 4 3 10 17 10 5 4 2 2 2 4 5 4 5 5 6 5 4 4 4 4 3 4 6 7 7 6 5 4 4 3 4 5 6 7 7
6 10 9 6 8 7 6 7 6 3 4 5 9 14 9 12 9 -1 17 23 5 -1 -3 -1 2 -2 -2 -3 -3 -0 -0 -1 2 3 -0 2 4 4 4 3 4 3 3 4 2 2 3 2 1 0 1 3 2 2 3 3 4 4 3 3 3 4 3 7 15 13 7 4 3 3 2 3 4 4 5 5 6 5 4 4 4 3 3 4 7 7 7 6 5 4 3 4 4 4 6 6 7
5 7 9 7 8 9 4 3 9 6 5 3 5 21 17 4 2 -4 7 21 21 15 0 -3 2 1 1 -1 -2 -3 -2 -1 0 2 0 1 3 2 4 4 4 4 3 3 2 3 3 1 2 1 -0 1 2 1 2 2 4 5 3 3 4 4 3 5 13 12 7 6 4 3 2 3 4 5 5 5 6 5 4 5 4 3 3 5 7 7 7 5 4 3 2 3 3 4 5 6 6
3 4 8 6 7 11 4 1 8 6 12 7 -0 25 22 -7 1 8 1 5 17 22 14 8 5 4 3 0 2 -0 -3 -1 -2 -1 0 1 2 2 3 3 4 4 3 3 3 3 2 1 1 1 0 -1 0 1 1 2 3 4 3 3 4 4 3 4 10 12 7 7 6 4 3 3 4 5 5 5 6 6 5 5 4 3 3 5 7 6 5 4 3 2 2 2 3 4 4 5 5
3 3 6 5 5 8 4 3 6 3 9 8 3 25 13 -16 1 13 4 3 4 9 15 18 13 9 11 5 3 2 -2 -1 -2 -2 -1 0 1 2 3 3 3 4 3 3 2 1 1 2 2 0 1 0 0 1 1 1 2 3 4 4 4 4 4 3 7 10 8 8 8 6 4 3 4 4 5 6 6 6 6 4 4 2 3 5 6 6 5 4 2 2 2 2 3 4 5 5 6
2 4 3 3 5 5 3 4 5 2 6 6 8 23 9 -12 -1 6 11 11 2 3 4 11 15 11 15 15 10 6 2 0 -2 -3 -4 -2 0 1 2 3 3 3 3 2 2 2 1 2 2 0 1 1 1 1 1 2 1 2 3 3 3 3 4 3 5 8 7 8 9 8 5 3 4 4 5 5 6 7 6 4 3 2 3 5 6 5 4 3 2 2 2 2 3 5 7 7 7
-0 2 3 2 3 4 3 3 4 4 5 6 7 20 15 1 2 1 11 17 10 9 3 1 9 8 10 14 16 14 11 10 7 4 -1 -5 -4 -1 2 2 3 3 2 2 2 2 2 1 1 1 1 1 2 2 2 2 1 1 2 2 4 4 3 4 4 6 7 8 9 8 5 3 3 3 5 5 6 7 6 4 3 2 3 5 7 5 4 4 2 2 1 2 5 8 9 7 6
1 3 4 2 2 4 4 0 3 4 5 5 5 18 16 1 3 4 5 14 15 13 9 4 3 5 6 6 10 13 14 15 14 15 14 4 -5 -5 -1 1 2 3 2 2 1 1 1 1 1 0 1 1 1 2 2 2 3 3 3 2 3 3 3 5 5 4 6 9 10 9 6 5 3 3 4 5 6 7 6 5 2 2 2 4 7 5 4 3 1 1 1 3 7 9 8 6 5
6 6 6 5 2 3 4 0 1 1 4 6 5 15 15 -2 1 7 2 7 14 12 11 11 6 6 6 2 2 4 7 8 6 13 23 21 8 -5 -5 -2 -0 3 3 2 1 1 1 2 2 1 1 1 -0 -0 1 3 4 4 4 4 3 1 2 5 6 4 5 9 11 10 8 6 4 2 4 5 6 7 7 5 3 2 3 5 7 5 4 3 2 2 1 5 7 5 5 4 4
6 5 7 8 5 3 2 -1 1 0 3 7 4 11 17 1 -4 5 5 4 10 12 9 10 10 10 10 7 3 -0 2 3 3 8 17 28 25 7 -4 -4 -3 -1 1 3 3 2 2 1 1 1 1 0 -1 -2 -2 -1 -1 -1 0 3 3 2 3 5 5 4 5 8 10 10 9 7 4 2 4 5 6 7 6 5 4 3 4 6 6 5 4 3 3 2 2 6 6 3 3 4 3
15 10 7 6 7 7 1 -3 1 1 3 7 2 7 16 6 -3 3 7 5 8 11 9 9 9 10 13 13 10 6 2 1 3 6 10 21 32 23 5 -4 -5 -2 -1 -0 0 -0 1 -0 -0 1 2 1 1 -1 -3 -6 -7 -7 -5 -1 2 2 4 4 3 4 5 7 8 9 8 6 5 4 5 6 6 6 7 6 4 3 3 5 6 5 4 4 4 2 3 6 4 2 2 2 3
24 19 15 10 5 5 2 -0 2 1 4 9 1 3 15 6 -4 3 6 5 6 9 10 10 8 9 12 14 14 14 11 6 2 4 7 12 24 31 23 7 -4 -6 -2 1 1 0 -0 -0 -1 -1 -1 -1 0 1 0 -2 -5 -5 -3 -2 1 1 2 2 3 4 4 5 7 7 6 6 6 6 5 6 6 6 7 6 5 4 3 4 5 5 5 5 3 2 4 6 4 2 2 3 3
34 30 27 23 12 5 6 1 2 5 8 10 0 1 15 7 -3 2 6 5 5 6 9 10 7 6 8 11 13 14 15 13 8 5 6 8 12 22 30 28 15 1 -6 -7 -4 -1 -1 -0 -1 -1 -2 -3 -3 -2 -2 -2 -2 -0 2 -1 -1 1 2 1 2 4 4 4 5 5 6 8 8 7 5 5 6 7 7 6 5 4 3 4 4 5 6 5 3 3 5 6 4 2 3 3 4
36 38 38 38 25 14 16 7 1 6 10 12 5 6 17 7 -3 2 3 4 7 3 6 10 8 6 5 6 9 12 13 13 12 8 6 9 9 11 17 26 31 26 15 4 -0 -2 -3 -3 -4 -4 -3 -3 -3 -3 -3 -3 -5 -4 -0 0 -2 -1 2 2 1 3 5 7 8 9 9 8 7 6 5 5 7 8 7 6 6 4 3 3 4 5 7 6 4 4 6 6 2 1 2 2 4
23 30 38 47 40 25 23 17 10 11 10 9 5 17 34 11 -6 5 2 2 9 2 2 9 9 8 6 4 4 8 11 11 12 9 5 9 13 14 15 15 21 29 30 27 23 18 14 12 10 8 6 3 -0 -2 -3 -3 -3 -5 -4 -3 -3 -0 4 6 2 -0 6 12 10 10 9 7 6 6 6 6 6 7 6 5 5 4 3 3 4 7 8 7 5 6 7 5 3 3 3 3 4
16 18 25 38 45 38 30 21 19 21 18 8 -5 11 41 24 -3 3 4 2 7 2 0 6 7 9 10 9 7 7 9 11 12 12 8 6 9 14 17 16 15 16 18 22 23 22 21 20 22 23 24 23 17 12 6 -0 -2 -2 -3 -4 -4 4 12 11 5 -2 3 12 10 7 7 5 5 6 8 7 6 6 6 6 6 4 4 4 5 7 8 6 5 6 6 4 3 3 2 3 3
15 10 13 19 26 34 35 24 19 23 23 17 1 -2 30 39 9 -3 4 3 3 2 2 3 3 6 9 9 10 9 8 9 10 12 12 9 7 7 9 12 13 12 10 12 14 15 16 14 15 18 21 25 27 28 25 16 5 -1 -0 1 1 12 21 17 10 2 -0 7 9 7 5 4 4 6 8 6 5 6 6 6 6 5 5 5 6 7 6 5 5 6 6 3 2 2 2 3 3
12 5 11 15 12 18 25 24 26 30 27 24 12 -3 19 45 16 -10 2 5 2 4 1 1 1 1 5 5 6 9 8 9 9 10 12 12 10 8 8 8 9 10 9 9 12 13 14 14 13 15 17 22 27 30 34 34 25 10 3 6 9 19 26 17 9 5 1 5 10 7 4 3 5 8 8 6 4 6 7 6 6 5 5 6 7 6 4 4 5 6 5 3 3 3 3 4 3
9 4 9 12 10 13 14 16 21 27 32 33 22 -1 9 43 24 -10 2 5 0 5 -2 -1 4 0 3 4 2 6 6 8 10 10 10 11 12 11 9 10 9 10 9 7 9 8 10 12 12 13 15 20 25 26 27 31 33 23 10 10 14 22 25 16 10 8 4 7 11 8 6 5 6 7 7 6 6 7 7 7 6 6 6 6 6 6 5 5 5 5 4 3 3 4 4 4 3
9 7 10 8 10 14 11 12 12 12 25 37 34 10 6 45 39 -6 -3 7 0 3 -2 -3 3 1 3 6 4 5 4 5 7 7 8 8 10 10 7 8 8 9 9 8 10 10 9 9 8 10 10 11 16 20 22 23 25 23 16 13 14 18 21 16 13 12 9 11 14 10 8 8 8 9 8 5 6 7 7 7 7 6 6 6 6 6 5 4 4 5 4 4 4 4 4 4 4
10 9 10 9 10 13 11 13 10 7 18 29 36 25 11 47 60 6 -10 7 3 2 2 -2 -0 -1 1 4 6 8 5 5 4 4 5 5 7 9 8 8 6 7 10 9 9 9 10 11 10 9 8 8 10 12 16 17 16 17 15 13 12 14 16 14 14 15 12 13 14 10 8 7 7 8 7 7 8 8 7 6 6 6 7 7 6 6 5 3 4 5 5 4 4 4 4 4 4
12 10 9 11 11 12 11 12 9 8 19 22 25 25 11 38 72 33 -5 0 0 0 4 2 1 -1 -1 1 3 8 8 7 6 3 4 4 4 6 9 11 9 5 8 9 9 7 6 9 11 12 12 12 11 11 12 12 12 12 12 12 12 13 14 15 15 14 14 15 13 9 7 7 7 7 7 7 8 8 6 5 5 6 6 6 5 4 4 3 4 6 5 4 4 4 5 5 4
10 9 10 12 12 13 12 11 11 10 18 17 12 16 11 27 64 48 8 -2 1 5 4 1 3 -0 1 5 1 3 6 6 8 6 3 4 5 5 6 10 13 11 7 7 9 10 9 7 8 10 13 13 12 13 14 15 14 14 13 13 14 13 13 16 17 14 14 15 12 9 8 7 6 6 6 6 6 5 4 4 4 4 5 5 5 4 4 5 5 6 5 4 5 5 5 5 4
9 8 8 9 7 12 15 13 14 12 15 16 9 10 10 24 56 57 30 11 5 12 7 -5 3 5 1 5 4 4 6 4 6 8 5 4 3 5 6 6 11 14 12 9 8 9 10 10 9 8 9 9 10 11 12 15 18 17 15 14 15 15 15 16 16 14 14 14 12 9 8 8 6 5 6 5 5 4 4 4 4 5 5 5 5 4 4 5 6 6 5 4 5 5 5 5 4
10 9 6 7 8 12 15 11 12 16 18 15 8 8 7 18 43 52 49 36 15 17 18 -2 1 10 1 -1 1 4 9 9 7 7 8 8 4 3 4 4 6 10 11 11 10 9 8 8 9 8 7 6 5 6 8 12 16 15 13 13 14 15 15 15 15 15 14 12 10 9 7 7 7 6 6 5 6 6 5 6 5 5 5 5 5 5 5 6 5 6 5 5 6 5 5 5 4
11 11 8 11 13 14 14 14 16 19 20 16 9 10 11 14 27 31 42 51 32 23 31 15 4 7 3 1 0 -1 4 8 11 11 8 8 8 6 4 3 3 5 8 9 9 11 11 9 9 9 9 8 6 7 9 11 14 14 12 12 12 13 13 15 15 15 14 11 8 7 6 7 7 8 8 7 7 6 6 6 5 5 5 5 6 5 6 6 5 6 5 5 5 5 5 4 4
11 13 11 11 12 10 10 14 16 9 7 11 12 15 13 12 20 18 19 37 35 25 32 30 18 10 6 5 3 -1 -0 2 7 13 14 12 10 9 8 6 4 1 3 6 7 9 11 11 11 10 10 10 10 10 9 10 12 13 12 11 11 12 13 15 15 12 11 10 8 7 6 7 9 10 9 8 8 7 6 6 5 5 6 6 7 6 6 7 6 6 5 5 5 4 5 4 4
13 14 12 11 12 13 12 11 13 8 3 5 7 11 11 9 17 18 11 19 27 25 31 38 34 24 16 14 10 4 3 1 1 6 12 16 13 10 10 10 10 7 4 3 4 5 8 11 12 11 11 10 10 10 10 11 13 14 13 11 10 10 10 12 13 12 11 10 9 9 8 9 9 8 8 8 8 6 5 5 5 5 6 6 7 6 6 6 6 6 4 4 5 4 5 4 4
12 13 12 12 11 12 13 9 9 12 11 11 9 8 8 8 13 18 17 17 18 17 21 31 37 33 26 25 22 14 8 5 3 0 3 11 16 14 11 9 10 12 10 8 6 4 4 7 10 11 12 12 11 10 11 13 15 15 14 11 11 9 8 8 8 8 8 8 7 7 7 8 6 4 5 6 5 4 3 4 5 5 5 6 7 6 6 6 6 5 4 4 5 4 4 4 5
10 12 12 13 13 14 15 12 9 11 11 13 17 14 9 8 8 11 15 17 16 13 12 17 28 30 25 27 30 28 23 18 14 8 1 1 9 15 14 11 9 9 10 10 9 9 7 5 8 10 11 13 13 10 11 14 14 13 11 9 9 9 9 8 7 5 4 4 5 4 4 6 5 2 3 4 4 4 4 4 5 5 7 7 7 6 6 6 5 5 5 4 4 4 4 5 4
12 12 11 13 15 15 14 11 12 16 9 2 7 12 8 8 10 9 10 10 13 14 11 11 20 24 22 22 27 30 30 27 26 25 17 5 2 8 14 14 10 7 9 9 8 10 10 8 7 9 10 12 14 12 10 12 12 10 9 9 11 12 10 9 8 7 5 2 1 1 0 2 2 -2 -2 1 4 4 4 5 5 6 8 7 6 6 6 6 5 4 5 5 4 4 4 5 4
Height
5810 5811 5813 5814 5814 5816 5817 5819 5820 5822 5824 5827 5831 5832 5833 5833 5832 5835 5838 5838 5839 5841 5843 5844 5846 5848 5848 5850 5851 5852 5854 5855 5855 5855 5855 5856 5858 5860 5861 5863 5864 5865 5866 5867 5867 5868 5868 5868 5869 5870 5871 5872 5873 5873 5874 5875 5876 5877 5877 5878 5879 5879 5880 5880 5880 5881 5881 5882 5882 5882 5883 5883 5883 5883 5883 5883 5883 5883 5884 5884 5884 5884 5884 5883 5884 5884 5883 5884 5884 5884 5884 5884 5884 5884 5884 5884 5884
5808 5809 5811 5812 5813 5814 5815 5817 5817 5819 5822 5825 5829 5831 5832 5832 5832 5835 5837 5837 5838 5840 5842 5843 5845 5847 5848 5849 5850 5851 5853 5854 5854 5855 5855 5855 5856 5858 5860 5862 5863 5864 5865 5866 5867 5868 5868 5869 5869 5870 5870 5871 5872 5873 5874 5874 5875 5876 5877 5877 5878 5879 5879 5880 5880 5881 5881 5881 5882 5882 5882 5883 5883 5883 5883 5883 5883 5883 5883 5883 5884 5884 5884 5883 5883 5883 5883 5883 5884 5884 5884 5884 5884 5884 5884 5884 5884
5806 5807 5809 5810 5811 5812 5813 5813 5814 5818 5820 5825 5830 5831 5831 5830 5832 5834 5835 5836 5837 5839 5841 5843 5844 5846 5848 5848 5849 5850 5852 5852 5853 5854 5854 5855 5856 5857 5859 5861 5862 5863 5864 5865 5866 5867 5868 5868 5869 5869 5870 5871 5871 5872 5873 5874 5874 5875 5876 5877 5877 5878 5879 5879 5880 5880 5881 5881 5881 5882 5882 5882 5882 5883 5883 5883 5883 5883 5883 5883 5883 5883 5883 5883 5883 5883 5883 5883 5883 5883 5884 5884 5883 5884 5883 5883 5883
5804 5805 5806 5808 5809 5810 5810 5810 5812 5815 5818 5824 5829 5829 5829 5830 5831 5831 5832 5835 5837 5838 5840 5842 5843 5845 5846 5847 5848 5849 5851 5852 5852 5853 5853 5855 5856 5857 5858 5859 5861 5862 5863 5864 5865 5866 5867 5868 5868 5869 5870 5870 5871 5872 5872 5873 5873 5874 5875 5876 5876 5877 5878 5878 5879 5879 5880 5880 5881 5881 5882 5882 5882 5882 5882 5882 5882 5882 5883 5883 5883 5883 5883 5883 5882 5882 5882 5882 5883 5883 5883 5883 5883 5883 5883 5883 5883
5801 5803 5804 5805 5806 5807 5807 5808 5811 5814 5819 5825 5827 5828 5828 5829 5828 5828 5831 5834 5836 5837 5839 5841 5842 5843 5844 5846 5847 5849 5850 5851 5852 5852 5853 5854 5855 5856 5857 5858 5860 5861 5863 5864 5865 5866 5867 5867 5868 5869 5869 5870 5870 5871 5872 5872 5873 5873 5874 5875 5875 5876 5877 5877 5878 5879 5879 5880 5880 5880 5881 5881 5881 5882 5882 5882 5882 5882 5882 5882 5882 5882 5882 5882 5882 5882 5882 5882 5882 5882 5882 5882 5882 5882 5882 5882 5882
5798 5800 5802 5803 5803 5804 5805 5807 5810 5814 5820 5823 5824 5825 5825 5825 5825 5826 5830 5833 5834 5835 5837 5840 5841 5841 5843 5844 5846 5848 5849 5850 5851 5851 5852 5853 5854 5855 5856 5858 5859 5860 5861 5863 5864 5865 5866 5867 5868 5868 5869 5869 5870 5871 5871 5872 5872 5872 5873 5874 5874 5875 5876 5876 5877 5878 5878 5879 5879 5880 5880 5880 5881 5881 5881 5881 5881 5881 5881 5881 5881 5882 5881 5882 5881 5881 5881 5881 5881 5881 5881 5881 5881 5881 5881 5881 5881
5795 5796 5798 5800 5801 5802 5802 5805 5810 5815 5818 5819 5821 5821 5821 5821 5822 5824 5828 5831 5832 5833 5836 5838 5839 5840 5841 5843 5844 5846 5848 5849 5850 5851 5851 5852 5854 5854 5855 5857 5858 5859 5860 5861 5863 5864 5865 5866 5867 5868 5868 5869 5869 5870 5870 5871 5872 5872 5872 5873 5873 5874 5875 5875 5876 5877 5877 5878 5878 5879 5879 5879 5880 5880 5880 5880 5880 5881 5881 5881 5881 5881 5881 5881 5881 5880 5881 5881 5881 5881 5880 5880 5880 5880 5880 5880 5880
5791 5793 5795 5796 5798 5799 5800 5804 5809 5813 5815 5815 5819 5818 5817 5819 5820 5823 5826 5829 5830 5831 5834 5835 5837 5838 5840 5842 5843 5844 5846 5848 5850 5851 5851 5852 5853 5854 5855 5856 5857 5858 5859 5860 5861 5863 5864 5865 5866 5867 5868 5868 5869 5869 5869 5870 5870 5871 5872 5872 5873 5873 5873 5874 5875 5876 5876 5877 5877 5877 5878 5878 5878 5879 5879 5879 5880 5880 5880 5880 5880 5880 5880 5880 5880 5880 5880 5880 5880 5880 5879 5879 5879 5879 5879 5879 5879
5787 5789 5791 5793 5794 5796 5798 5803 5807 5811 5813 5814 5816 5816 5815 5817 5818 5821 5824 5826 5828 5830 5832 5833 5835 5837 5839 5840 5841 5843 5845 5847 5849 5849 5850 5851 5852 5853 5854 5855 5856 5857 5858 5859 5860 5861 5863 5864 5865 5866 5866 5867 5868 5868 5868 5868 5869 5869 5870 5871 5872 5872 5873 5873 5874 5874 5875 5875 5876 5876 5877 5877 5877 5878 5878 5878 5878 5879 5879 5879 5879 5879 5879 5879 5879 5879 5879 5879 5879 5879 5879 5878 5878 5878 5878 5878 5878
5783 5785 5787 5789 5790 5792 5795 5800 5805 5808 5811 5812 5814 5813 5812 5814 5816 5818 5821 5824 5826 5828 5829 5831 5834 5836 5838 5839 5840 5843 5844 5846 5847 5848 5849 5850 5851 5852 5853 5854 5855 5856 5857 5858 5859 5860 5861 5863 5863 5864 5865 5866 5867 5867 5867 5868 5868 5868 5868 5869 5870 5870 5871 5872 5873 5873 5874 5874 5875 5875 5876 5876 5876 5876 5877 5877 5877 5877 5878 5878 5878 5879 5879 5879 5878 5878 5878 5878 5878 5878 5878 5877 5877 5877 5877 5877 5877
5779 5781 5783 5784 5786 5789 5792 5798 5803 5806 5808 5808 5810 5811 5809 5811 5813 5816 5819 5821 5824 5826 5828 5830 5833 5835 5836 5837 5839 5841 5843 5844 5845 5847 5848 5849 5850 5851 5852 5853 5854 5855 5856 5857 5858 5859 5860 5861 5862 5863 5864 5865 5865 5866 5866 5867 5867 5867 5867 5867 5868 5868 5869 5870 5871 5872 5873 5873 5874 5874 5874 5875 5875 5875 5876 5876 5876 5876 5877 5877 5877 5878 5878 5878 5878 5877 5877 5877 5878 5878 5877 5877 5877 5876 5876 5876 5875
5774 5777 5778 5779 5782 5786 5789 5795 5800 5802 5803 5804 5807 5807 5806 5808 5810 5814 5817 5819 5821 5823 5825 5828 5831 5833 5834 5836 5838 5839 5841 5843 5844 5845 5846 5847 5849 5850 5851 5852 5853 5854 5855 5856 5857 5858 5859 5860 5860 5861 5862 5863 5864 5864 5865 5865 5866 5866 5866 5866 5867 5867 5867 5868 5869 5870 5871 5872 5873 5873 5873 5874 5874 5874 5875 5875 5875 5875 5876 5876 5876 5876 5877 5876 5876 5876 5876 5876 5877 5877 5876 5876 5876 5876 5875 5875 5875
5770 5772 5774 5775 5778 5782 5785 5790 5796 5798 5799 5801 5804 5803 5803 5804 5808 5812 5815 5816 5818 5820 5823 5826 5829 5830 5831 5834 5836 5838 5840 5841 5843 5844 5844 5845 5847 5848 5850 5850 5851 5853 5854 5855 5856 5856 5857 5858 5859 5859 5860 5861 5862 5863 5863 5864 5864 5864 5865 5865 5866 5866 5866 5866 5867 5868 5869 5870 5871 5872 5872 5873 5873 5873 5874 5874 5874 5874 5874 5874 5875 5875 5875 5875 5875 5875 5875 5875 5875 5876 5876 5875 5875 5875 5874 5874 5874
5766 5768 5769 5770 5773 5777 5780 5785 5792 5795 5797 5799 5800 5800 5800 5802 5806 5809 5810 5812 5815 5818 5822 5823 5825 5826 5828 5832 5835 5837 5837 5838 5840 5841 5843 5844 5845 5847 5848 5849 5850 5852 5853 5854 5854 5855 5856 5856 5857 5858 5858 5859 5860 5861 5861 5862 5862 5862 5863 5864 5864 5865 5865 5865 5866 5867 5868 5869 5870 5870 5871 5871 5871 5872 5872 5873 5873 5873 5873 5873 5873 5874 5874 5874 5874 5874 5874 5874 5874 5875 5875 5874 5874 5874 5874 5873 5873
5761 5763 5764 5765 5768 5771 5775 5779 5787 5791 5795 5797 5796 5797 5797 5798 5802 5804 5807 5810 5813 5816 5818 5819 5821 5823 5827 5832 5834 5834 5833 5835 5838 5839 5841 5842 5843 5845 5846 5847 5849 5850 5851 5852 5853 5854 5854 5855 5856 5856 5857 5857 5858 5859 5859 5860 5861 5861 5861 5862 5862 5863 5864 5864 5865 5866 5866 5867 5868 5869 5869 5870 5870 5870 5871 5871 5872 5872 5872 5872 5872 5873 5873 5873 5873 5873 5873 5873 5873 5874 5874 5874 5873 5873 5873 5873 5872
5756 5758 5758 5759 5763 5766 5770 5775 5781 5787 5792 5793 5793 5793 5794 5795 5798 5800 5803 5807 5810 5812 5814 5816 5818 5822 5827 5830 5831 5829 5829 5832 5835 5836 5838 5840 5842 5843 5844 5845 5847 5848 5849 5850 5851 5852 5853 5854 5854 5855 5856 5856 5856 5857 5857 5858 5859 5859 5859 5860 5861 5862 5863 5863 5864 5865 5865 5866 5867 5867 5868 5868 5868 5869 5869 5870 5870 5871 5871 5871 5871 5871 5872 5872 5872 5872 5872 5872 5872 5873 5873 5873 5872 5872 5872 5872 5872
5751 5752 5752 5754 5757 5761 5765 5770 5775 5782 5788 5791 5790 5790 5790 5791 5793 5796 5800 5803 5806 5808 5810 5812 5814 5819 5824 5826 5827 5826 5826 5829 5831 5833 5835 5837 5839 5841 5842 5843 5844 5846 5847 5848 5849 5850 5851 5852 5853 5853 5854 5855 5855 5855 5856 5856 5857 5857 5858 5859 5859 5860 5861 5862 5863 5864 5864 5865 5865 5866 5866 5867 5867 5867 5868 5868 5869 5869 5870 5870 5870 5870 5870 5870 5871 5871 5871 5871 5871 5871 5872 5872 5871 5871 5871 5871 5871
5746 5747 5747 5749 5753 5756 5761 5766 5771 5777 5784 5788 5787 5786 5786 5787 5788 5791 5794 5797 5801 5803 5805 5808 5811 5815 5820 5823 5824 5823 5824 5826 5828 5830 5832 5834 5836 5838 5840 5841 5842 5843 5845 5846 5847 5848 5849 5850 5851 5852 5852 5853 5854 5854 5855 5855 5855 5856 5856 5857 5858 5859 5859 5860 5862 5862 5863 5864 5864 5865 5865 5865 5866 5866 5866 5867 5867 5868 5868 5868 5868 5868 5869 5869 5869 5870 5870 5870 5870 5870 5870 5870 5871 5870 5870 5870 5870
5742 5743 5742 5745 5749 5752 5756 5761 5765 5770 5776 5781 5783 5781 5781 5783 5783 5784 5788 5792 5796 5799 5802 5804 5807 5812 5817 5820 5821 5821 5822 5823 5825 5827 5828 5830 5832 5835 5836 5838 5840 5841 5842 5842 5843 5845 5847 5848 5849 5849 5850 5851 5852 5852 5853 5853 5854 5854 5855 5855 5856 5857 5858 5859 5860 5861 5862 5862 5863 5863 5864 5864 5865 5865 5865 5866 5866 5866 5867 5867 5867 5867 5867 5867 5868 5868 5868 5868 5868 5868 5869 5869 5869 5869 5869 5868 5868
5738 5738 5738 5742 5745 5747 5750 5754 5758 5763 5768 5773 5777 5777 5776 5779 5779 5779 5783 5787 5790 5795 5798 5800 5803 5809 5813 5816 5817 5818 5819 5820 5821 5823 5825 5827 5829 5832 5834 5835 5837 5837 5838 5839 5841 5843 5845 5846 5846 5847 5847 5848 5849 5850 5851 5851 5852 5852 5853 5853 5854 5855 5856 5857 5858 5859 5860 5861 5861 5862 5862 5863 5863 5864 5864 5865 5865 5865 5865 5865 5866 5866 5866 5866 5866 5866 5867 5867 5867 5867 5867 5867 5868 5868 5868 5867 5867
5732 5733 5736 5739 5741 5742 5745 5749 5753 5757 5760 5765 5771 5772 5772 5774 5773 5774 5778 5781 5785 5791 5795 5797 5800 5805 5809 5811 5812 5814 5815 5816 5817 5818 5821 5823 5827 5829 5831 5832 5833 5833 5835 5837 5839 5840 5841 5842 5844 5844 5845 5846 5847 5848 5849 5849 5850 5850 5851 5851 5852 5853 5854 5855 5856 5857 5858 5859 5860 5860 5861 5861 5862 5862 5863 5863 5863 5864 5864 5864 5864 5864 5864 5865 5865 5865 5865 5865 5865 5865 5866 5866 5866 5866 5866 5866 5866
5727 5730 5734 5734 5736 5737 5739 5744 5747 5750 5754 5757 5761 5765 5767 5767 5767 5769 5770 5774 5781 5787 5789 5792 5795 5798 5802 5803 5806 5809 5810 5811 5812 5814 5817 5820 5824 5826 5827 5828 5829 5830 5832 5834 5836 5837 5838 5840 5841 5842 5843 5844 5844 5845 5845 5846 5847 5848 5848 5849 5850 5851 5852 5853 5854 5855 5856 5856 5857 5858 5859 5860 5860 5860 5861 5861 5862 5862 5863 5863 5863 5863 5863 5863 5863 5863 5864 5864 5864 5864 5864 5864 5864 5864 5864 5864 5864
5724 5728 5729 5728 5729 5730 5733 5737 5740 5744 5747 5749 5753 5757 5760 5760 5762 5763 5763 5768 5777 5780 5782 5785 5788 5791 5794 5796 5799 5803 5805 5806 5808 5811 5814 5817 5820 5822 5823 5824 5825 5827 5829 5831 5833 5835 5836 5837 5838 5839 5840 5841 5841 5842 5842 5843 5844 5845 5846 5847 5848 5849 5850 5851 5852 5853 5853 5854 5854 5855 5857 5858 5858 5859 5859 5859 5860 5860 5861 5861 5861 5861 5861 5861 5862 5862 5862 5862 5862 5862 5862 5862 5863 5862 5862 5862 5862
5719 5723 5724 5723 5724 5725 5727 5730 5733 5737 5740 5743 5745 5749 5753 5754 5756 5756 5758 5764 5769 5773 5776 5778 5781 5784 5787 5790 5793 5797 5800 5802 5805 5808 5810 5813 5816 5817 5818 5820 5822 5824 5826 5829 5830 5831 5832 5834 5834 5835 5837 5838 5838 5839 5840 5841 5842 5842 5843 5844 5845 5846 5847 5848 5849 5850 5851 5851 5852 5853 5854 5855 5856 5856 5857 5857 5857 5858 5858 5859 5860 5860 5859 5859 5860 5860 5860 5860 5860 5860 5860 5860 5860 5861 5860 5860 5860
5713 5716 5718 5718 5718 5719 5721 5723 5727 5729 5733 5736 5737 5742 5747 5747 5747 5748 5754 5759 5762 5766 5769 5771 5775 5777 5780 5784 5787 5792 5795 5798 5801 5805 5807 5809 5812 5813 5813 5815 5818 5821 5824 5826 5826 5827 5829 5830 5830 5832 5834 5834 5835 5836 5837 5839 5839 5840 5840 5841 5842 5842 5844 5845 5846 5847 5848 5848 5849 5850 5852 5853 5853 5853 5854 5855 5855 5856 5856 5857 5857 5857 5857 5857 5858 5858 5858 5858 5858 5858 5858 5858 5858 5858 5858 5858 5858
5708 5709 5711 5713 5713 5714 5715 5717 5720 5722 5725 5727 5730 5735 5739 5739 5738 5743 5751 5754 5756 5759 5762 5766 5768 5770 5774 5777 5781 5786 5790 5793 5797 5800 5803 5805 5806 5807 5809 5812 5815 5818 5820 5821 5822 5823 5824 5825 5827 5829 5830 5830 5831 5833 5834 5836 5836 5837 5838 5839 5839 5839 5841 5842 5842 5844 5845 5846 5847 5848 5849 5850 5850 5851 5851 5852 5853 5853 5854 5854 5855 5855 5855 5855 5855 5855 5855 5855 5856 5856 5856 5856 5856 5856 5856 5856 5856
5702 5701 5703 5707 5708 5709 5709 5711 5714 5715 5718 5720 5723 5726 5731 5732 5731 5739 5747 5748 5751 5753 5755 5759 5761 5765 5768 5771 5775 5779 5783 5788 5791 5795 5797 5799 5800 5803 5805 5808 5811 5813 5815 5816 5817 5819 5819 5821 5823 5825 5826 5827 5828 5830 5831 5832 5833 5834 5835 5835 5836 5837 5837 5838 5839 5841 5842 5843 5844 5845 5846 5847 5847 5848 5848 5849 5850 5851 5851 5852 5852 5852 5852 5852 5853 5852 5853 5853 5853 5853 5854 5854 5854 5853 5853 5853 5853
5695 5695 5696 5700 5702 5702 5704 5706 5707 5708 5711 5714 5715 5717 5722 5725 5728 5737 5741 5743 5746 5746 5750 5753 5756 5760 5763 5766 5769 5772 5777 5782 5785 5789 5792 5794 5797 5799 5801 5804 5806 5807 5808 5810 5811 5813 5814 5816 5819 5820 5821 5822 5824 5826 5827 5828 5830 5831 5831 5832 5833 5834 5834 5835 5836 5837 5838 5840 5841 5842 5843 5844 5845 5845 5846 5847 5847 5848 5849 5850 5850 5850 5850 5850 5850 5850 5851 5851 5851 5851 5851 5851 5851 5851 5851 5851 5851
5688 5689 5690 5692 5695 5696 5699 5700 5701 5702 5704 5706 5707 5707 5712 5720 5728 5733 5734 5738 5739 5740 5745 5748 5750 5754 5756 5760 5763 5767 5771 5774 5779 5783 5787 5789 5792 5794 5797 5799 5799 5801 5802 5804 5805 5807 5809 5812 5814 5815 5816 5818 5819 5821 5823 5824 5826 5827 5827 5828 5829 5830 5831 5832 5833 5834 5835 5836 5837 5838 5840 5840 5842 5842 5843 5844 5845 5845 5846 5847 5848 5848 5848 5848 5848 5849 5849 5849 5849 5849 5849 5849 5849 5849 5849 5849 5848
5681 5683 5683 5686 5688 5691 5694 5694 5694 5697 5696 5698 5700 5696 5704 5720 5725 5725 5728 5730 5729 5733 5739 5739 5743 5746 5749 5754 5757 5761 5765 5768 5774 5778 5781 5784 5786 5789 5790 5792 5793 5794 5796 5797 5800 5802 5804 5806 5807 5809 5811 5813 5814 5816 5818 5820 5822 5823 5824 5824 5825 5826 5827 5829 5830 5831 5832 5833 5834 5835 5836 5837 5838 5839 5840 5841 5842 5842 5843 5844 5845 5845 5845 5845 5846 5847 5847 5847 5847 5847 5847 5847 5847 5847 5846 5846 5846
5675 5675 5676 5679 5680 5683 5688 5687 5687 5689 5688 5691 5691 5687 5701 5716 5716 5718 5721 5720 5721 5726 5730 5731 5736 5739 5742 5747 5749 5755 5759 5762 5768 5771 5775 5778 5780 5781 5783 5785 5786 5788 5790 5791 5794 5796 5797 5799 5801 5803 5806 5808 5810 5811 5814 5815 5817 5819 5820 5821 5821 5822 5824 5825 5826 5828 5828 5829 5830 5831 5833 5834 5835 5836 5837 5838 5839 5839 5840 5841 5842 5842 5842 5843 5844 5844 5845 5845 5845 5844 5844 5844 5844 5844 5844 5843 5843
5667 5666 5670 5673 5672 5675 5679 5680 5680 5680 5680 5684 5682 5683 5699 5706 5706 5712 5712 5711 5715 5716 5720 5725 5729 5732 5735 5739 5742 5747 5752 5756 5759 5763 5767 5770 5772 5774 5776 5778 5780 5781 5783 5785 5787 5788 5790 5792 5794 5797 5799 5802 5804 5807 5808 5810 5812 5814 5816 5817 5817 5819 5820 5822 5823 5824 5825 5825 5826 5827 5829 5830 5831 5833 5834 5835 5835 5836 5837 5837 5838 5839 5839 5840 5841 5842 5842 5842 5842 5842 5842 5841 5841 5841 5841 5841 5840
5661 5660 5663 5665 5664 5665 5667 5670 5673 5673 5674 5675 5675 5680 5692 5693 5696 5705 5704 5704 5708 5707 5712 5718 5721 5725 5728 5731 5734 5738 5743 5747 5751 5755 5759 5761 5764 5766 5768 5771 5773 5775 5776 5777 5779 5781 5783 5785 5787 5790 5793 5795 5798 5801 5803 5805 5807 5809 5810 5812 5813 5815 5816 5818 5820 5821 5821 5822 5822 5823 5825 5826 5828 5829 5830 5831 5832 5833 5833 5834 5835 5835 5836 5837 5838 5839 5839 5839 5839 5839 5839 5838 5838 5838 5839 5838 5838
5656 5652 5653 5655 5655 5656 5659 5663 5665 5667 5667 5667 5669 5673 5684 5687 5687 5694 5697 5698 5699 5701 5705 5710 5714 5718 5720 5724 5727 5730 5734 5738 5743 5747 5749 5753 5756 5759 5761 5763 5765 5767 5768 5770 5772 5774 5777 5778 5780 5782 5786 5789 5792 5796 5798 5800 5802 5803 5805 5807 5809 5811 5813 5814 5816 5817 5817 5818 5819 5819 5821 5822 5824 5826 5827 5828 5829 5829 5830 5830 5831 5832 5833 5833 5834 5835 5836 5836 5836 5836 5836 5836 5836 5836 5836 5836 5835
5645 5642 5643 5646 5647 5649 5653 5656 5656 5659 5659 5659 5662 5665 5677 5684 5677 5680 5689 5691 5692 5696 5698 5701 5707 5711 5713 5717 5720 5724 5727 5731 5736 5738 5740 5744 5747 5750 5752 5755 5757 5759 5761 5763 5765 5768 5770 5772 5773 5775 5779 5783 5787 5790 5793 5794 5796 5798 5800 5803 5805 5807 5809 5811 5812 5813 5813 5814 5815 5816 5816 5818 5820 5822 5823 5824 5825 5825 5826 5827 5828 5829 5830 5830 5831 5832 5833 5833 5833 5833 5833 5833 5833 5833 5833 5833 5832
5630 5631 5633 5636 5639 5641 5646 5647 5647 5650 5647 5648 5654 5657 5668 5673 5666 5667 5677 5684 5685 5688 5692 5695 5700 5703 5707 5711 5714 5718 5720 5725 5729 5729 5732 5735 5737 5741 5744 5746 5749 5751 5753 5756 5759 5761 5764 5766 5767 5770 5773 5777 5780 5783 5786 5788 5791 5793 5796 5798 5801 5803 5806 5807 5808 5808 5809 5810 5811 5811 5812 5814 5816 5818 5819 5820 5820 5821 5822 5823 5824 5825 5826 5827 5828 5829 5829 5829 5830 5830 5830 5830 5830 5830 5830 5830 5829
5620 5621 5623 5628 5631 5632 5640 5640 5637 5639 5635 5638 5646 5647 5654 5659 5656 5657 5666 5674 5677 5681 5685 5688 5693 5696 5701 5704 5708 5712 5714 5719 5721 5721 5725 5726 5728 5733 5735 5738 5740 5743 5746 5748 5751 5755 5757 5759 5761 5764 5767 5768 5772 5776 5779 5782 5785 5788 5790 5793 5796 5799 5800 5801 5802 5803 5804 5806 5806 5806 5808 5810 5812 5814 5815 5816 5815 5816 5818 5819 5820 5821 5822 5823 5824 5825 5825 5826 5827 5827 5827 5827 5827 5827 5827 5827 5826
5611 5610 5612 5619 5623 5627 5636 5633 5629 5631 5625 5629 5638 5635 5640 5649 5647 5647 5655 5662 5669 5678 5678 5679 5685 5689 5693 5698 5701 5705 5708 5711 5712 5715 5718 5718 5721 5725 5726 5729 5732 5735 5738 5740 5744 5747 5748 5751 5754 5758 5759 5760 5764 5768 5772 5776 5779 5782 5785 5788 5790 5792 5794 5795 5796 5797 5799 5799 5800 5801 5803 5805 5807 5809 5810 5810 5810 5812 5814 5815 5817 5818 5818 5819 5819 5821 5822 5823 5824 5823 5823 5823 5823 5824 5824 5823 5823
5601 5602 5603 5609 5617 5624 5626 5623 5624 5622 5614 5619 5629 5622 5626 5639 5637 5636 5646 5653 5663 5673 5671 5672 5678 5682 5687 5692 5695 5698 5701 5703 5705 5708 5711 5711 5713 5716 5718 5721 5723 5726 5729 5732 5736 5738 5740 5743 5747 5750 5752 5755 5757 5761 5765 5769 5773 5775 5779 5781 5783 5785 5787 5789 5790 5791 5792 5792 5794 5796 5798 5800 5802 5804 5805 5805 5806 5808 5811 5812 5813 5814 5814 5814 5815 5816 5818 5820 5820 5820 5820 5820 5820 5820 5821 5820 5820
5595 5596 5596 5599 5612 5615 5612 5616 5616 5608 5604 5610 5616 5608 5612 5628 5628 5628 5639 5647 5655 5663 5665 5668 5673 5676 5682 5686 5688 5691 5694 5697 5699 5701 5703 5704 5705 5707 5709 5712 5714 5716 5719 5723 5727 5729 5733 5736 5740 5743 5745 5748 5751 5753 5758 5762 5765 5767 5770 5773 5775 5777 5780 5782 5783 5784 5786 5787 5789 5791 5793 5796 5798 5799 5800 5801 5803 5806 5807 5808 5809 5809 5809 5809 5811 5813 5815 5816 5816 5816 5817 5817 5816 5817 5817 5816 5816
5589 5589 5589 5594 5605 5603 5600 5606 5602 5595 5596 5600 5602 5592 5596 5618 5622 5621 5633 5638 5643 5653 5659 5664 5667 5670 5675 5678 5681 5684 5687 5690 5691 5693 5694 5695 5697 5699 5701 5703 5704 5707 5710 5714 5717 5720 5724 5728 5731 5734 5737 5741 5743 5745 5749 5753 5756 5759 5761 5765 5768 5771 5773 5775 5778 5780 5782 5784 5786 5788 5789 5791 5793 5794 5796 5798 5800 5801 5802 5803 5804 5804 5805 5806 5807 5809 5811 5812 5812 5813 5813 5813 5813 5813 5813 5813 5813
5582 5584 5587 5590 5594 5592 5590 5593 5588 5582 5584 5592 5595 5577 5578 5607 5613 5612 5624 5629 5635 5646 5651 5656 5662 5664 5667 5670 5674 5677 5678 5681 5683 5684 5686 5686 5689 5690 5692 5695 5696 5699 5702 5704 5707 5710 5714 5718 5721 5724 5728 5731 5734 5736 5739 5743 5748 5751 5753 5756 5761 5765 5767 5770 5773 5776 5777 5780 5782 5783 5784 5786 5787 5789 5791 5793 5794 5795 5796 5798 5799 5800 5801 5802 5804 5806 5807 5808 5809 5809 5809 5809 5809 5809 5809 5809 5809
5577 5583 5584 5580 5581 5580 5579 5579 5574 5568 5571 5584 5587 5567 5565 5591 5602 5605 5618 5622 5629 5638 5640 5647 5657 5659 5660 5662 5665 5667 5669 5672 5673 5676 5679 5680 5681 5682 5684 5686 5687 5689 5693 5694 5697 5701 5704 5707 5710 5714 5718 5721 5724 5726 5729 5733 5738 5742 5745 5748 5753 5757 5760 5763 5766 5768 5770 5773 5774 5775 5777 5779 5781 5782 5785 5787 5788 5790 5791 5793 5794 5796 5797 5799 5800 5802 5803 5803 5804 5805 5805 5805 5805 5805 5805 5805 5804
5573 5579 5572 5568 5572 5570 5567 5566 5560 5558 5564 5568 5568 5563 5561 5574 5594 5606 5612 5615 5619 5627 5632 5640 5651 5652 5651 5654 5654 5656 5660 5662 5664 5667 5670 5672 5672 5674 5675 5675 5677 5680 5683 5684 5688 5693 5695 5698 5701 5705 5708 5711 5713 5715 5718 5723 5728 5733 5736 5740 5744 5749 5753 5755 5756 5759 5761 5763 5765 5768 5770 5771 5774 5776 5778 5780 5782 5784 5786 5788 5790 5791 5793 5795 5796 5797 5797 5798 5799 5800 5801 5800 5800 5801 5801 5801 5800
5568 5568 5560 5563 5565 5559 5559 5556 5551 5553 5555 5549 5554 5563 5555 5560 5591 5604 5601 5606 5609 5618 5629 5632 5639 5643 5642 5644 5644 5646 5651 5653 5655 5658 5660 5661 5662 5663 5665 5666 5668 5671 5674 5676 5681 5685 5687 5691 5693 5696 5700 5702 5704 5706 5709 5714 5719 5724 5728 5732 5736 5740 5744 5745 5746 5750 5752 5755 5758 5760 5763 5764 5767 5770 5772 5774 5776 5779 5782 5783 5785 5787 5789 5790 5791 5792 5792 5793 5795 5796 5796 5796 5796 5797 5797 5796 5796
5560 5555 5552 5557 5553 5551 5554 5547 5545 5547 5539 5536 5550 5560 5547 5549 5584 5596 5588 5597 5604 5612 5623 5622 5626 5632 5632 5634 5636 5637 5641 5643 5645 5647 5648 5649 5650 5652 5654 5657 5660 5663 5666 5669 5674 5677 5680 5684 5686 5689 5693 5695 5697 5699 5702 5707 5710 5715 5720 5724 5728 5732 5735 5737 5738 5741 5745 5747 5750 5752 5755 5758 5761 5764 5767 5769 5771 5774 5777 5779 5781 5782 5784 5785 5786 5787 5787 5789 5790 5791 5791 5791 5792 5792 5792 5792 5791
5551 5547 5547 5548 5543 5545 5546 5539 5541 5535 5522 5532 5549 5557 5546 5536 5565 5590 5582 5585 5597 5604 5610 5611 5616 5622 5622 5625 5627 5628 5630 5630 5633 5634 5635 5636 5637 5640 5645 5650 5654 5656 5659 5663 5667 5670 5673 5676 5680 5684 5687 5689 5692 5694 5696 5700 5703 5707 5712 5716 5720 5723 5727 5729 5731 5734 5737 5740 5743 5746 5749 5753 5756 5759 5761 5763 5766 5769 5771 5774 5776 5777 5778 5779 5781 5782 5782 5783 5785 5786 5787 5787 5788 5788 5787 5787 5787
5544 5542 5541 5538 5535 5538 5536 5532 5534 5521 5515 5536 5549 5551 5540 5521 5545 5583 5578 5574 5586 5593 5598 5602 5606 5610 5613 5616 5617 5616 5615 5616 5619 5621 5623 5625 5629 5634 5639 5645 5649 5649 5652 5656 5658 5661 5664 5668 5672 5677 5680 5683 5686 5688 5691 5695 5697 5700 5705 5708 5712 5715 5718 5721 5725 5728 5730 5733 5737 5739 5742 5746 5750 5753 5755 5758 5761 5764 5767 5769 5770 5771 5772 5774 5775 5776 5776 5778 5780 5782 5783 5783 5783 5783 5783 5783 5783
5538 5537 5536 5531 5528 5528 5524 5524 5524 5515 5517 5537 5542 5536 5524 5509 5532 5570 5574 5571 5575 5578 5584 5590 5594 5599 5603 5603 5602 5601 5602 5605 5609 5612 5616 5620 5624 5629 5633 5638 5641 5643 5646 5648 5649 5652 5655 5659 5663 5668 5673 5676 5678 5681 5685 5688 5691 5694 5697 5700 5704 5706 5709 5714 5718 5720 5723 5726 5729 5732 5735 5740 5744 5747 5750 5754 5757 5759 5761 5762 5763 5765 5767 5768 5769 5770 5771 5774 5776 5778 5778 5778 5778 5778 5779 5779 5779
5531 5531 5530 5524 5521 5518 5514 5516 5516 5511 5517 5528 5530 5521 5508 5504 5529 5562 5572 5567 5561 5563 5572 5577 5580 5582 5582 5584 5587 5591 5595 5598 5601 5606 5610 5614 5618 5621 5625 5629 5632 5636 5638 5639 5641 5644 5647 5651 5655 5660 5664 5666 5669 5673 5677 5680 5684 5687 5689 5692 5695 5698 5701 5706 5710 5713 5716 5719 5722 5725 5729 5733 5738 5741 5745 5748 5750 5751 5753 5754 5756 5759 5761 5762 5764 5766 5767 5769 5771 5773 5773 5773 5773 5773 5774 5774 5775
5523 5525 5522 5517 5517 5512 5507 5509 5508 5506 5512 5517 5516 5508 5500 5505 5530 5556 5562 5553 5547 5551 5560 5560 5559 5561 5565 5573 5581 5585 5588 5591 5594 5598 5602 5607 5611 5613 5616 5620 5623 5627 5629 5630 5634 5637 5640 5644 5647 5651 5655 5656 5660 5664 5668 5673 5677 5678 5680 5683 5687 5691 5694 5697 5701 5705 5709 5712 5716 5719 5723 5728 5732 5736 5739 5741 5742 5743 5745 5748 5750 5753 5755 5757 5759 5761 5763 5765 5766 5767 5767 5768 5768 5769 5770 5770 5770
5514 5515 5513 5511 5512 5508 5502 5502 5502 5503 5502 5501 5502 5500 5499 5507 5524 5541 5544 5540 5536 5537 5543 5545 5544 5551 5559 5565 5571 5575 5578 5583 5587 5591 5594 5598 5602 5604 5608 5610 5613 5617 5620 5623 5626 5629 5633 5637 5640 5644 5647 5648 5651 5655 5659 5664 5667 5669 5672 5676 5679 5682 5686 5689 5693 5697 5702 5706 5710 5714 5717 5722 5726 5729 5732 5734 5735 5737 5740 5742 5744 5747 5749 5751 5753 5756 5758 5760 5761 5761 5762 5763 5763 5764 5765 5765 5765
5504 5505 5507 5506 5505 5502 5498 5495 5498 5498 5489 5487 5494 5494 5498 5503 5511 5525 5531 5529 5525 5521 5528 5535 5535 5541 5547 5550 5557 5563 5569 5576 5579 5582 5586 5589 5594 5596 5599 5601 5604 5608 5612 5616 5618 5621 5625 5629 5633 5638 5640 5641 5643 5647 5651 5655 5659 5662 5666 5669 5672 5675 5679 5683 5687 5691 5696 5700 5704 5708 5711 5715 5718 5722 5725 5727 5729 5731 5733 5736 5738 5740 5743 5745 5748 5751 5753 5754 5755 5756 5757 5758 5758 5759 5760 5760 5760
5495 5497 5499 5498 5495 5495 5495 5489 5489 5490 5480 5480 5487 5487 5491 5494 5499 5514 5519 5516 5515 5512 5516 5523 5524 5528 5533 5537 5543 5549 5557 5565 5570 5574 5577 5580 5584 5587 5589 5592 5596 5600 5604 5608 5611 5613 5618 5622 5625 5630 5633 5636 5638 5641 5643 5647 5652 5656 5660 5663 5666 5670 5674 5677 5681 5685 5689 5693 5698 5701 5705 5708 5712 5715 5718 5720 5722 5724 5727 5730 5732 5735 5738 5740 5743 5745 5747 5748 5749 5750 5751 5752 5753 5754 5755 5755 5755
5486 5489 5489 5488 5486 5486 5488 5482 5480 5481 5475 5474 5478 5478 5482 5485 5490 5504 5509 5509 5510 5506 5505 5510 5514 5517 5520 5524 5530 5534 5542 5552 5559 5564 5568 5570 5574 5577 5580 5584 5587 5592 5596 5599 5603 5606 5611 5614 5617 5621 5626 5629 5632 5635 5638 5641 5645 5649 5652 5656 5659 5663 5667 5671 5675 5678 5682 5687 5691 5694 5698 5701 5705 5708 5710 5713 5715 5718 5721 5724 5726 5729 5732 5735 5737 5740 5741 5742 5743 5744 5746 5747 5748 5749 5750 5750 5750
5477 5478 5479 5479 5477 5476 5477 5474 5472 5473 5470 5468 5469 5470 5473 5477 5484 5494 5498 5501 5501 5496 5495 5498 5502 5506 5508 5511 5518 5522 5529 5537 5546 5554 5557 5561 5564 5567 5571 5575 5578 5583 5587 5591 5595 5598 5603 5606 5609 5614 5618 5622 5625 5629 5632 5634 5638 5642 5645 5649 5653 5656 5660 5664 5667 5671 5675 5680 5683 5687 5690 5694 5697 5700 5703 5705 5708 5711 5714 5717 5720 5723 5726 5729 5731 5734 5735 5736 5738 5739 5740 5742 5743 5744 5745 5745 5745
5468 5468 5468 5468 5467 5467 5466 5464 5466 5467 5464 5462 5461 5461 5464 5470 5476 5483 5488 5491 5491 5489 5489 5490 5493 5497 5499 5501 5506 5511 5517 5523 5531 5540 5546 5551 5555 5558 5562 5566 5570 5574 5578 5582 5586 5590 5594 5598 5602 5606 5610 5614 5618 5622 5624 5627 5630 5634 5638 5642 5646 5649 5653 5657 5660 5664 5668 5671 5675 5678 5682 5685 5689 5692 5695 5698 5701 5704 5708 5711 5714 5717 5720 5723 5725 5728 5729 5730 5732 5734 5735 5737 5738 5739 5739 5740 5740
5458 5457 5459 5458 5457 5458 5455 5453 5458 5460 5456 5456 5455 5451 5456 5463 5467 5472 5479 5482 5482 5482 5482 5482 5485 5489 5490 5493 5497 5500 5506 5511 5516 5525 5533 5539 5545 5549 5553 5558 5562 5566 5569 5573 5577 5582 5586 5590 5594 5598 5603 5607 5611 5614 5617 5620 5623 5626 5631 5635 5638 5642 5645 5649 5653 5657 5661 5664 5668 5671 5675 5678 5683 5686 5689 5692 5695 5698 5701 5704 5708 5711 5715 5717 5719 5721 5723 5725 5727 5728 5730 5731 5733 5734 5734 5735 5736